CW5112 Weather Reports


time (UTC)temp
C
wind
direction
speed
KPH
gust
KPH
rain 1hr
cm
rain 24hr
cm
rain mn
cm
humidity
%
barometer
mb
20260502151514 12 94 0.0 0.0 0.00 0.00 0.00 53 1013.7
20260502123050 8 319 0.0 0.0 0.00 0.00 0.00 68 1013.5
20260502121547 8 350 0.0 0.0 0.00 0.00 0.00 69 1013.4
20260502114605 8 314 0.0 0.0 0.00 0.00 0.00 67 1013.1
20260502113045 8 294 0.0 0.0 0.00 0.00 0.00 67 1013.2
20260502111543 8 307 0.0 0.0 0.00 0.00 0.00 65 1013.1
20260502110039 8 286 0.0 0.0 0.00 0.00 0.00 63 1013.0
20260502104538 8 273 0.0 3.2 0.00 0.00 0.00 61 1013.3
20260502103035 8 327 0.0 0.0 0.00 0.00 0.00 61 1013.2
20260502101538 8 337 0.0 0.0 0.00 0.00 0.00 62 1013.3
20260502091527 9 331 0.0 0.0 0.00 0.00 0.00 62 1013.1
20260502071515 11 5 0.0 0.0 0.00 0.00 0.00 67 1012.7
20260502070014 11 360 0.0 0.0 0.00 0.00 0.00 66 1012.7
20260502064528 11 319 0.0 1.6 0.00 0.00 0.00 66 1012.8
20260502063019 11 327 0.0 16.1 0.00 0.00 0.00 64 1012.8
20260502061511 11 320 0.0 0.0 0.00 0.00 0.00 64 1012.9
20260502060020 11 290 0.0 0.0 0.00 0.00 0.00 64 1012.9
20260502054509 11 320 0.0 0.0 0.00 0.00 0.00 64 1012.8
20260502053006 11 325 0.0 1.6 0.00 0.00 0.00 64 1013.0
20260502051508 12 340 0.0 0.0 0.00 0.00 0.00 64 1012.9
20260502050004 12 310 0.0 0.0 0.00 0.00 0.00 65 1012.9
20260502044500 12 57 0.0 0.0 0.00 0.00 0.00 65 1012.9
20260502043126 12 355 0.0 1.6 0.00 0.00 0.00 65 1012.9
20260502041602 13 5 0.0 0.0 0.00 0.00 0.00 66 1012.9
20260502040057 13 355 0.0 1.6 0.00 0.00 0.00 65 1012.8
20260502034553 13 51 0.0 4.8 0.00 0.00 0.00 65 1012.9
20260502033052 13 40 0.0 0.0 0.00 0.00 0.00 64 1012.5
20260502031551 13 336 0.0 0.0 0.00 0.00 0.00 64 1012.3
20260502030052 13 315 0.0 0.0 0.00 0.00 0.00 65 1012.1
20260502024551 13 24 0.0 0.0 0.00 0.00 0.00 66 1012.1
20260502023055 13 296 0.0 0.0 0.00 0.00 0.00 66 1011.8
20260502021553 14 223 0.0 0.0 0.00 0.00 0.00 65 1011.2
20260502020049 15 223 0.0 0.0 0.00 0.00 0.00 63 1010.9
20260502014549 15 335 0.0 0.0 0.00 0.00 0.00 61 1010.7
20260502013052 15 158 0.0 0.0 0.00 0.00 0.00 58 1010.4
20260502011555 15 156 0.0 0.0 0.00 0.00 0.00 58 1010.2
20260502010046 15 161 0.0 1.6 0.00 0.00 0.00 58 1010.0
20260502004547 15 168 0.0 0.0 0.00 0.00 0.00 58 1009.8
20260502003046 15 163 0.0 1.6 0.00 0.00 0.00 57 1009.6
20260502001545 15 162 0.0 1.6 0.00 0.00 0.00 58 1009.6
20260502000045 16 137 0.0 1.6 0.00 0.00 0.00 57 1009.3
20260501234544 16 156 0.0 0.0 0.00 0.00 0.00 57 1009.2
20260501233044 16 155 0.0 0.0 0.00 0.00 0.00 55 1009.1
20260501231543 16 156 0.0 0.0 0.00 0.00 0.00 53 1009.2
20260501230047 16 171 0.0 0.0 0.00 0.00 0.00 53 1008.9
20260501224543 17 174 0.0 0.0 0.00 0.00 0.00 52 1009.0
20260501223042 17 200 0.0 1.6 0.00 0.00 0.00 50 1009.1
20260501221541 17 178 0.0 1.6 0.00 0.00 0.00 50 1009.1
20260501220041 17 146 0.0 0.0 0.00 0.00 0.00 50 1009.2
20260501214540 17 155 0.0 1.6 0.00 0.00 0.00 48 1009.2
20260501213038 17 213 0.0 0.0 0.00 0.00 0.00 48 1009.3
20260501211539 18 267 0.0 1.6 0.00 0.00 0.00 46 1009.3
20260501210037 18 190 0.0 9.7 0.00 0.00 0.00 45 1009.6
20260501204546 18 148 0.0 3.2 0.00 0.00 0.00 44 1009.6
20260501203032 18 141 0.0 16.1 0.00 0.00 0.00 43 1009.9
20260501201531 18 175 0.0 1.6 0.00 0.00 0.00 44 1010.2
20260501200032 18 193 0.0 0.0 0.00 0.00 0.00 46 1010.4
20260501194527 18 144 0.0 9.7 0.00 0.00 0.00 45 1010.8
20260501193023 18 114 0.0 3.2 0.00 0.00 0.00 45 1011.2
20260501191532 18 131 0.0 0.0 0.00 0.00 0.00 45 1011.5
20260501190021 17 146 0.0 1.6 0.00 0.00 0.00 45 1011.5
20260501184534 17 118 0.0 1.6 0.00 0.00 0.00 46 1011.7
20260501183016 18 127 0.0 6.4 0.00 0.00 0.00 48 1011.9
20260501181513 17 69 0.0 1.6 0.00 0.00 0.00 50 1012.2
20260501180013 17 82 0.0 8.0 0.00 0.00 0.00 48 1012.4
20260501174510 17 135 0.0 0.0 0.00 0.00 0.00 47 1012.5
20260501173010 16 181 0.0 1.6 0.00 0.00 0.00 48 1012.9
20260501171504 16 194 0.0 4.8 0.00 0.00 0.00 48 1013.0
20260501170002 15 146 0.0 3.2 0.00 0.00 0.00 51 1013.3
20260501164559 15 215 0.0 8.0 0.00 0.00 0.00 50 1013.4
20260501163103 15 135 0.0 6.4 0.00 0.00 0.00 50 1013.7
20260501161551 15 275 0.0 6.4 0.00 0.00 0.00 54 1013.9
20260501160049 15 157 0.0 0.0 0.00 0.00 0.00 53 1014.1